• In Uzbekistan
  • List of Countries
  • For 7 days
  • Water Temperature
  • Satellite Maps
  • Weather Map
  • Weather Widgets
  • user-avatar
    Login

    Hourly Weather Salta

    Today, 23 October, Monday

    Time Temperature Precipitation Wind Pressure Humidity
    00:00 +14°C° 0 mm 1 mps 651 mmHg 57%
    01:00 +13°C° 0 mm 1 mps 650 mmHg 58%
    02:00 +13°C° 0 mm 1 mps 650 mmHg 66%
    03:00 +13°C° 0 mm 1 mps 650 mmHg 64%
    04:00 +13°C° 0 mm 1 mps 649 mmHg 63%
    05:00 +13°C° 0 mm 1 mps 649 mmHg 62%
    06:00 +15°C° 0 mm 1 mps 650 mmHg 55%
    07:00 +18°C° 0 mm 1 mps 651 mmHg 48%
    08:00 +20°C° 0 mm 1 mps 652 mmHg 40%
    09:00 +21°C° 0 mm 2 mps 652 mmHg 36%
    10:00 +24°C° 0 mm 2 mps 652 mmHg 31%
    11:00 +26°C° 0 mm 3 mps 652 mmHg 27%
    12:00 +27°C° 0 mm 3 mps 652 mmHg 25%
    13:00 +28°C° 0 mm 3 mps 651 mmHg 24%
    14:00 +29°C° 0 mm 3 mps 651 mmHg 23%
    15:00 +28°C° 0 mm 3 mps 650 mmHg 25%
    16:00 +28°C° 0 mm 4 mps 650 mmHg 26%
    17:00 +27°C° 0 mm 4 mps 649 mmHg 28%
    18:00 +25°C° 0 mm 3 mps 649 mmHg 35%
    19:00 +21°C° 0 mm 2 mps 649 mmHg 42%
    20:00 +19°C° 0 mm 2 mps 649 mmHg 49%
    21:00 +20°C° 0 mm 1 mps 650 mmHg 51%
    22:00 +19°C° 0 mm 1 mps 650 mmHg 53%
    23:00 +18°C° 0 mm 1 mps 650 mmHg 55%

    Tomorrow, 24 October, Tuesday

    Time Temperature Precipitation Wind Pressure Humidity
    00:00 +18°C° 0 mm 1 mps 650 mmHg 54%
    01:00 +18°C° 0 mm 1 mps 649 mmHg 54%
    02:00 +16°C° 0 mm 1 mps 649 mmHg 54%
    03:00 +16°C° 0 mm 1 mps 649 mmHg 53%
    04:00 +16°C° 0 mm 2 mps 649 mmHg 53%
    05:00 +16°C° 0 mm 2 mps 649 mmHg 53%
    06:00 +18°C° 0 mm 2 mps 650 mmHg 47%
    07:00 +20°C° 0 mm 2 mps 651 mmHg 41%
    08:00 +23°C° 0 mm 1 mps 652 mmHg 35%
    09:00 +25°C° 0 mm 2 mps 652 mmHg 32%
    10:00 +27°C° 0 mm 2 mps 652 mmHg 30%
    11:00 +29°C° 0 mm 3 mps 652 mmHg 27%
    12:00 +30°C° 0 mm 3 mps 652 mmHg 26%
    13:00 +30°C° 0 mm 3 mps 651 mmHg 26%
    14:00 +31°C° 0 mm 3 mps 651 mmHg 25%
    15:00 +31°C° 0 mm 3 mps 650 mmHg 27%
    16:00 +30°C° 0 mm 4 mps 649 mmHg 29%
    17:00 +29°C° 0 mm 4 mps 649 mmHg 32%
    18:00 +27°C° 0 mm 3 mps 649 mmHg 40%
    19:00 +25°C° 0 mm 2 mps 649 mmHg 47%
    20:00 +23°C° 0 mm 2 mps 649 mmHg 55%
    21:00 +22°C° 0.2 mm 1 mps 650 mmHg 56%
    22:00 +22°C° 0.2 mm 1 mps 650 mmHg 58%
    23:00 +22°C° 0.2 mm 1 mps 650 mmHg 59%

    Day after tomorrow, 25 October, Wednesday

    Time Temperature Precipitation Wind Pressure Humidity
    00:00 +21°C° 0.2 mm 1 mps 650 mmHg 60%
    01:00 +21°C° 0.2 mm 1 mps 649 mmHg 60%
    02:00 +21°C° 0.2 mm 1 mps 649 mmHg 60%
    03:00 +20°C° 0 mm 1 mps 649 mmHg 60%
    04:00 +20°C° 0 mm 1 mps 649 mmHg 60%
    05:00 +20°C° 0 mm 1 mps 649 mmHg 59%
    06:00 +22°C° 0 mm 1 mps 649 mmHg 54%
    07:00 +24°C° 0 mm 1 mps 650 mmHg 48%
    08:00 +26°C° 0 mm 1 mps 651 mmHg 43%
    09:00 +28°C° 0 mm 2 mps 651 mmHg 38%
    10:00 +29°C° 0 mm 2 mps 651 mmHg 34%
    11:00 +31°C° 0 mm 3 mps 651 mmHg 29%
    12:00 +33°C° 0 mm 3 mps 650 mmHg 27%
    13:00 +34°C° 0 mm 4 mps 650 mmHg 25%
    14:00 +35°C° 0 mm 4 mps 649 mmHg 23%
    15:00 +34°C° 0.1 mm 4 mps 649 mmHg 25%
    16:00 +33°C° 0.1 mm 4 mps 648 mmHg 27%
    17:00 +33°C° 0.1 mm 4 mps 647 mmHg 30%
    18:00 +29°C° 0.5 mm 3 mps 648 mmHg 40%
    19:00 +27°C° 0.5 mm 2 mps 648 mmHg 51%
    20:00 +25°C° 0.5 mm 2 mps 648 mmHg 61%
    21:00 +24°C° 0.2 mm 2 mps 648 mmHg 64%
    22:00 +23°C° 0.2 mm 2 mps 649 mmHg 66%
    23:00 +23°C° 0.2 mm 1 mps 649 mmHg 69%

    26 October, Thursday

    Time Temperature Precipitation Wind Pressure Humidity
    00:00 +22°C° 0 mm 1 mps 649 mmHg 70%
    01:00 +22°C° 0 mm 1 mps 648 mmHg 71%
    02:00 +21°C° 0 mm 1 mps 648 mmHg 73%
    03:00 +21°C° 0 mm 1 mps 648 mmHg 71%
    04:00 +21°C° 0 mm 1 mps 648 mmHg 70%
    05:00 +20°C° 0 mm 1 mps 648 mmHg 68%
    06:00 +22°C° 0 mm 1 mps 649 mmHg 63%
    07:00 +23°C° 0 mm 1 mps 650 mmHg 57%
    08:00 +25°C° 0 mm 1 mps 651 mmHg 51%
    09:00 +27°C° 0 mm 2 mps 651 mmHg 46%
    10:00 +28°C° 0 mm 2 mps 651 mmHg 41%
    11:00 +30°C° 0 mm 3 mps 651 mmHg 36%
    12:00 +31°C° 0.1 mm 3 mps 650 mmHg 35%
    13:00 +33°C° 0.1 mm 3 mps 650 mmHg 34%
    14:00 +33°C° 0.1 mm 4 mps 649 mmHg 32%
    15:00 +33°C° 0.3 mm 4 mps 648 mmHg 35%
    16:00 +32°C° 0.3 mm 4 mps 648 mmHg 37%
    17:00 +30°C° 0.3 mm 4 mps 648 mmHg 39%
    18:00 +29°C° 0.2 mm 3 mps 648 mmHg 48%
    19:00 +27°C° 0.2 mm 2 mps 648 mmHg 57%
    20:00 +25°C° 0.2 mm 1 mps 649 mmHg 65%
    21:00 +24°C° 0.1 mm 1 mps 649 mmHg 68%
    22:00 +24°C° 0.1 mm 1 mps 649 mmHg 70%
    23:00 +23°C° 0.1 mm 1 mps 649 mmHg 72%

    27 October, Friday

    Time Temperature Precipitation Wind Pressure Humidity
    00:00 +23°C° 0 mm 1 mps 649 mmHg 71%
    01:00 +22°C° 0 mm 1 mps 648 mmHg 70%
    02:00 +22°C° 0 mm 1 mps 648 mmHg 69%
    03:00 +22°C° 0 mm 1 mps 648 mmHg 65%
    04:00 +21°C° 0 mm 1 mps 648 mmHg 62%
    05:00 +20°C° 0 mm 2 mps 648 mmHg 59%
    06:00 +23°C° 0 mm 2 mps 649 mmHg 55%
    07:00 +24°C° 0 mm 2 mps 650 mmHg 52%
    08:00 +26°C° 0 mm 2 mps 651 mmHg 48%
    09:00 +27°C° 0.1 mm 3 mps 651 mmHg 48%
    10:00 +28°C° 0.1 mm 3 mps 651 mmHg 47%
    11:00 +28°C° 0.1 mm 4 mps 651 mmHg 47%
    12:00 +28°C° 0.3 mm 4 mps 650 mmHg 50%
    13:00 +28°C° 0.3 mm 3 mps 649 mmHg 52%
    14:00 +27°C° 0.3 mm 3 mps 648 mmHg 55%
    15:00 +26°C° 0.2 mm 3 mps 648 mmHg 58%
    16:00 +26°C° 0.2 mm 3 mps 648 mmHg 60%
    17:00 +25°C° 0.2 mm 3 mps 647 mmHg 63%
    18:00 +24°C° 0.1 mm 3 mps 648 mmHg 68%
    19:00 +23°C° 0.1 mm 2 mps 648 mmHg 72%
    20:00 +21°C° 0.1 mm 2 mps 649 mmHg 77%
    21:00 +21°C° 0.1 mm 2 mps 649 mmHg 78%
    22:00 +21°C° 0.1 mm 1 mps 649 mmHg 79%
    23:00 +21°C° 0.1 mm 1 mps 649 mmHg 80%

    28 October, Saturday

    Time Temperature Precipitation Wind Pressure Humidity
    00:00 +20°C° 0 mm 1 mps 649 mmHg 80%
    01:00 +20°C° 0 mm 1 mps 648 mmHg 79%
    02:00 +20°C° 0 mm 1 mps 648 mmHg 79%
    03:00 +19°C° 0 mm 1 mps 647 mmHg 78%
    04:00 +19°C° 0 mm 1 mps 647 mmHg 78%
    05:00 +19°C° 0 mm 1 mps 647 mmHg 77%
    06:00 +20°C° 0 mm 1 mps 648 mmHg 72%
    07:00 +20°C° 0 mm 2 mps 649 mmHg 66%
    08:00 +23°C° 0 mm 2 mps 649 mmHg 60%
    09:00 +24°C° 0 mm 2 mps 649 mmHg 55%
    10:00 +26°C° 0 mm 3 mps 649 mmHg 50%
    11:00 +27°C° 0 mm 3 mps 648 mmHg 46%
    12:00 +28°C° 0.2 mm 3 mps 648 mmHg 42%
    13:00 +29°C° 0.2 mm 4 mps 647 mmHg 39%
    14:00 +30°C° 0.2 mm 4 mps 646 mmHg 36%
    15:00 +29°C° 0.4 mm 4 mps 646 mmHg 38%
    16:00 +29°C° 0.4 mm 5 mps 646 mmHg 40%
    17:00 +28°C° 0.4 mm 5 mps 645 mmHg 42%
    18:00 +26°C° 0.5 mm 4 mps 645 mmHg 50%
    19:00 +24°C° 0.5 mm 3 mps 645 mmHg 58%
    20:00 +21°C° 0.5 mm 2 mps 646 mmHg 66%
    21:00 +21°C° 0 mm 2 mps 646 mmHg 66%
    22:00 +21°C° 0 mm 2 mps 646 mmHg 66%
    23:00 +20°C° 0 mm 2 mps 646 mmHg 66%

    29 October, Sunday

    Time Temperature Precipitation Wind Pressure Humidity
    00:00 +20°C° 0 mm 2 mps 646 mmHg 63%
    01:00 +20°C° 0 mm 2 mps 645 mmHg 61%
    02:00 +20°C° 0 mm 2 mps 645 mmHg 59%
    03:00 +20°C° 0 mm 2 mps 645 mmHg 55%
    04:00 +19°C° 0 mm 2 mps 646 mmHg 51%
    05:00 +19°C° 0 mm 2 mps 646 mmHg 46%
    06:00 +21°C° 0 mm 2 mps 647 mmHg 40%
    07:00 +24°C° 0 mm 2 mps 648 mmHg 33%
    08:00 +26°C° 0 mm 2 mps 649 mmHg 26%
    09:00 +28°C° 0 mm 2 mps 649 mmHg 20%
    10:00 +30°C° 0 mm 2 mps 650 mmHg 15%
    11:00 +33°C° 0 mm 3 mps 650 mmHg 9%
    12:00 +33°C° 0 mm 4 mps 650 mmHg 11%
    13:00 +33°C° 0 mm 5 mps 649 mmHg 13%
    14:00 +33°C° 0 mm 7 mps 649 mmHg 15%
    15:00 +30°C° 0.6 mm 6 mps 648 mmHg 22%
    16:00 +28°C° 0.6 mm 6 mps 648 mmHg 29%
    17:00 +27°C° 0.6 mm 5 mps 648 mmHg 36%
    18:00 +25°C° 0.9 mm 4 mps 648 mmHg 44%
    19:00 +22°C° 0.9 mm 3 mps 649 mmHg 53%
    20:00 +20°C° 0.9 mm 2 mps 649 mmHg 62%
    21:00 +20°C° 0 mm 2 mps 650 mmHg 65%
    22:00 +19°C° 0 mm 2 mps 650 mmHg 68%
    23:00 +19°C° 0 mm 1 mps 650 mmHg 71%
    Show more